Location: Groß Eilstorf
(52.8200°N, 9.4552°E)
Time: 21:36:58
(UTC+00:00)

BlueWalker 3 - Pass Details

Date: 15 May 2026
Orbit: 447 x 456 km, 53.2° (Epoch: 10 June)

Event Time Altitude Azimuth Distance (km) Brightness Sun altitude
Exits shadow 23:05:45 15° 102° (ESE) 1,301 3.9 -18.1°
Drops below altitude 10° 23:06:40 10° 91° (E) 1,575 4.4 -18.1°
Sets 23:09:06 0° 75° (ENE) 2,451 5.6 -18.1°
